CW8122 Weather Reports


time (UTC)temp
C
wind
direction
speed
KPH
gust
KPH
rain 1hr
cm
rain 24hr
cm
rain mn
cm
humidity
%
barometer
mb
20260505171711 15 202 3.2 9.7 0.00 0.00 0.00 45 1010.3
20260505171210 15 159 4.8 12.9 0.00 0.00 0.00 43 1010.4
20260505170710 15 130 4.8 12.9 0.00 0.00 0.00 43 1010.4
20260505163711 15 317 4.8 16.1 0.00 0.00 0.00 45 1010.6
20260505162210 14 302 12.9 19.3 0.00 0.00 0.00 48 1010.6
20260505161211 13 325 11.3 20.9 0.00 0.00 0.00 49 1010.7
20260505160710 13 311 11.3 20.9 0.00 0.00 0.00 49 1010.9
20260505160211 13 311 9.7 20.9 0.00 0.00 0.00 51 1011.0
20260505152711 13 306 9.7 32.2 0.00 0.00 0.00 52 1011.3
20260505152213 13 315 16.1 32.2 0.00 0.00 0.00 52 1011.5
20260505151211 13 312 14.5 32.2 0.00 0.00 0.00 57 1011.4
20260505150710 12 310 14.5 32.2 0.00 0.00 0.00 57 1011.3
20260505150211 12 309 11.3 25.7 0.00 0.00 0.00 59 1011.3
20260505123710 15 256 3.2 9.7 0.00 0.00 0.00 36 1010.6
20260505122711 15 241 4.8 8.0 0.00 0.00 0.00 36 1010.6
20260505121711 15 242 3.2 11.3 0.00 0.00 0.00 36 1010.6
20260505121211 15 252 6.4 11.3 0.00 0.00 0.00 36 1010.6
20260505120210 14 265 6.4 11.3 0.00 0.00 0.00 36 1010.4
20260505114710 15 271 0.0 3.2 0.00 0.00 0.00 35 1010.5
20260505113711 15 271 1.6 4.8 0.00 0.00 0.00 35 1010.3
20260505113210 15 271 1.6 4.8 0.00 0.00 0.00 34 1010.2
20260505112710 15 264 1.6 4.8 0.00 0.00 0.00 34 1010.2
20260505112210 15 266 3.2 4.8 0.00 0.00 0.00 34 1010.2
20260505111710 15 301 1.6 4.8 0.00 0.00 0.00 34 1010.3
20260505111210 15 301 1.6 9.7 0.00 0.00 0.00 34 1010.2
20260505102210 15 263 4.8 8.0 0.00 0.00 0.00 33 1010.6
20260505101711 15 259 3.2 4.8 0.00 0.00 0.00 33 1010.5
20260505100210 15 258 3.2 9.7 0.00 0.00 0.00 31 1010.4
20260505095711 16 248 3.2 9.7 0.00 0.00 0.00 31 1010.4
20260505095210 16 244 4.8 11.3 0.00 0.00 0.00 32 1010.3
20260505094710 16 257 4.8 11.3 0.00 0.00 0.00 32 1010.3
20260505093210 16 267 3.2 9.7 0.00 0.00 0.00 31 1010.2
20260505092210 16 265 1.6 4.8 0.00 0.00 0.00 31 1010.4
20260505091210 16 275 0.0 3.2 0.00 0.00 0.00 31 1010.4
20260505090710 16 275 1.6 3.2 0.00 0.00 0.00 31 1010.4
20260505085710 16 331 0.0 3.2 0.00 0.00 0.00 31 1010.6
20260505085210 16 331 0.0 4.8 0.00 0.00 0.00 31 1010.6
20260505082710 16 328 3.2 19.3 0.00 0.00 0.00 31 1010.9
20260505081710 16 273 8.0 19.3 0.00 0.00 0.00 30 1010.9
20260505080710 17 270 6.4 12.9 0.00 0.00 0.00 30 1011.1
20260505074710 17 276 8.0 19.3 0.00 0.00 0.00 29 1011.1
20260505073710 17 264 11.3 19.3 0.00 0.00 0.00 29 1010.9
20260505072211 17 274 9.7 24.1 0.00 0.00 0.00 28 1010.9
20260505070711 17 259 14.5 22.5 0.00 0.00 0.00 27 1010.8
20260505065710 18 258 9.7 20.9 0.00 0.00 0.00 26 1010.5
20260505065210 18 250 11.3 24.1 0.00 0.00 0.00 26 1010.4
20260505064210 18 257 14.5 24.1 0.00 0.00 0.00 26 1010.5
20260505063211 18 262 14.5 24.1 0.00 0.00 0.00 25 1010.3
20260505062710 18 250 14.5 22.5 0.00 0.00 0.00 25 1010.3
20260505062210 18 250 14.5 22.5 0.00 0.00 0.00 25 1010.3
20260505061711 18 264 12.9 25.7 0.00 0.00 0.00 25 1010.3
20260505055210 18 260 9.7 20.9 0.00 0.00 0.00 24 1010.2
20260505054710 18 259 8.0 20.9 0.00 0.00 0.00 24 1010.2
20260505053710 18 274 8.0 19.3 0.00 0.00 0.00 24 1010.2
20260505051710 19 251 9.7 16.1 0.00 0.00 0.00 23 1010.0
20260505050710 19 256 9.7 16.1 0.00 0.00 0.00 23 1010.1
20260505050211 19 257 8.0 16.1 0.00 0.00 0.00 23 1010.1
20260505040210 20 257 4.8 12.9 0.00 0.00 0.00 22 1010.2
20260505035210 20 259 8.0 14.5 0.00 0.00 0.00 22 1010.1
20260505034711 20 273 4.8 19.3 0.00 0.00 0.00 22 1010.1
20260505033210 20 275 8.0 19.3 0.00 0.00 0.00 22 1009.9
20260505032210 21 271 4.8 20.9 0.00 0.00 0.00 21 1009.6
20260505031710 21 278 6.4 20.9 0.00 0.00 0.00 21 1009.5
20260505030710 21 286 8.0 20.9 0.00 0.00 0.00 21 1009.4
20260505030210 21 276 9.7 29.0 0.00 0.00 0.00 21 1009.4
20260505025710 21 277 11.3 29.0 0.00 0.00 0.00 21 1009.3
20260505024210 21 277 11.3 32.2 0.00 0.00 0.00 20 1009.2
20260505023210 21 272 8.0 29.0 0.00 0.00 0.00 19 1009.2
20260505021710 22 260 14.5 27.4 0.00 0.00 0.00 18 1009.1
20260505015209 22 275 6.4 16.1 0.00 0.00 0.00 19 1008.8
20260505014710 22 279 9.7 22.5 0.00 0.00 0.00 18 1008.8
20260505013209 22 264 8.0 27.4 0.00 0.00 0.00 18 1008.6
20260505011710 23 267 16.1 27.4 0.00 0.00 0.00 18 1008.4
20260505011210 23 276 9.7 20.9 0.00 0.00 0.00 17 1008.3
20260505010709 23 267 9.7 20.9 0.00 0.00 0.00 17 1008.4
20260505010210 23 256 11.3 25.7 0.00 0.00 0.00 17 1008.4
20260505005710 23 256 14.5 29.0 0.00 0.00 0.00 17 1008.4
20260505003710 23 260 12.9 32.2 0.00 0.00 0.00 16 1008.5
20260505003210 23 264 16.1 32.2 0.00 0.00 0.00 15 1008.6
20260505002711 23 248 11.3 32.2 0.00 0.00 0.00 15 1008.5
20260505002210 24 242 12.9 32.2 0.00 0.00 0.00 15 1008.6
20260505000710 24 260 12.9 24.1 0.00 0.00 0.00 14 1008.6
20260505000211 24 275 11.3 22.5 0.00 0.00 0.00 14 1008.5
20260504235710 24 259 14.5 25.7 0.00 0.00 0.00 14 1008.5
20260504234209 24 262 20.9 38.6 0.00 0.00 0.00 14 1008.7
20260504233210 24 265 16.1 29.0 0.00 0.00 0.00 13 1008.8
20260504232710 24 262 16.1 27.4 0.00 0.00 0.00 12 1008.8
20260504232210 24 273 14.5 32.2 0.00 0.00 0.00 12 1008.8
20260504231710 24 252 16.1 32.2 0.00 0.00 0.00 12 1008.8
20260504225711 24 265 16.1 33.8 0.00 0.00 0.00 12 1008.8
20260504225210 24 255 19.3 33.8 0.00 0.00 0.00 12 1008.9
20260504224710 24 240 20.9 33.8 0.00 0.00 0.00 12 1009.0
20260504224209 25 236 14.5 32.2 0.00 0.00 0.00 11 1009.0
20260504223210 25 254 14.5 32.2 0.00 0.00 0.00 11 1009.0
20260504222709 25 237 19.3 32.2 0.00 0.00 0.00 11 1009.2
20260504222209 25 239 16.1 29.0 0.00 0.00 0.00 11 1009.2
20260504221710 25 253 11.3 32.2 0.00 0.00 0.00 12 1009.2
20260504220710 25 262 9.7 29.0 0.00 0.00 0.00 12 1009.4
20260504214710 25 242 14.5 27.4 0.00 0.00 0.00 12 1009.6
20260504213710 25 230 16.1 32.2 0.00 0.00 0.00 12 1009.7
20260504213210 25 248 17.7 33.8 0.00 0.00 0.00 12 1009.8
20260504212710 25 257 12.9 33.8 0.00 0.00 0.00 13 1009.8
20260504211710 25 244 11.3 33.8 0.00 0.00 0.00 13 1010.0
20260504211210 25 205 14.5 29.0 0.00 0.00 0.00 12 1010.0
20260504210210 25 213 9.7 19.3 0.00 0.00 0.00 13 1010.3
20260504204710 25 230 16.1 33.8 0.00 0.00 0.00 14 1010.9
20260504203210 26 286 6.4 22.5 0.00 0.00 0.00 15 1011.4
20260504202210 26 210 8.0 19.3 0.00 0.00 0.00 15 1011.7
20260504200710 25 294 14.5 24.1 0.00 0.00 0.00 16 1012.0
20260504200209 25 284 12.9 24.1 0.00 0.00 0.00 16 1012.1
20260504195710 25 244 11.3 29.0 0.00 0.00 0.00 16 1012.3
20260504195210 24 237 16.1 29.0 0.00 0.00 0.00 16 1012.3
20260504193710 23 228 9.7 41.8 0.00 0.00 0.00 17 1012.5
20260504192711 23 231 11.3 20.9 0.00 0.00 0.00 18 1012.6
20260504192210 23 239 9.7 27.4 0.00 0.00 0.00 18 1012.7
20260504190710 22 179 8.0 24.1 0.00 0.00 0.00 20 1012.8
20260504190210 22 214 12.9 24.1 0.00 0.00 0.00 19 1013.0
20260504185709 23 244 6.4 32.2 0.00 0.00 0.00 18 1013.1
20260504185211 22 254 12.9 32.2 0.00 0.00 0.00 18 1013.3
20260504184710 22 199 11.3 24.1 0.00 0.00 0.00 20 1013.4
20260504184211 21 231 14.5 24.1 0.00 0.00 0.00 20 1013.6
20260504183710 21 226 9.7 22.5 0.00 0.00 0.00 21 1013.5
20260504183209 21 155 8.0 22.5 0.00 0.00 0.00 21 1013.5
20260504182710 21 214 14.5 25.7 0.00 0.00 0.00 21 1013.8
20260504181210 22 253 14.5 29.0 0.00 0.00 0.00 20 1013.8
20260504174209 21 260 6.4 19.3 0.00 0.00 0.00 22 1014.2
20260504173710 21 262 8.0 19.3 0.00 0.00 0.00 20 1014.4
20260504172710 21 239 9.7 22.5 0.00 0.00 0.00 21 1014.4
20260504172210 21 243 9.7 22.5 0.00 0.00 0.00 20 1014.5